Flag for Central African Republic Weather past 2 weeks in Berbérati, Central African Republic

86 °F

Thunderstorms. Broken clouds.

Feels Like: 89 °F
Forecast: 70 / 84 °F
Wind: 3 mph from West

Location: Yaounde Airport

Current Time: Oct 4, 2015 at 4:53:47 PM

Latest Report: Oct 4, 2015 at 4:00 PM

Visibility: N/A

Pressure: 29.95 "Hg (27.99 "Hg at 600m altitude)

Humidity: 55%

Dew point: 68 °F

Location of BerbératiLocation

Historic Weather in Berbérati — Graph


Berbérati temperature yesterday

Maximum temperature yesterday: 84 °F (at 11:00 AM)
Minimum temperature yesterday: 68 °F (at 12:00 AM)
Average temperature yesterday: 74 °F

Past Weeks' High & Low Weather Summary

High90 °F (Oct 4, 3:00 PM)100% (Sep 21, 12:00 AM)30.18 "Hg (Sep 21, 12:00 AM)
Low66 °F (Sep 26, 12:00 AM)49% (Oct 4, 3:00 PM)29.86 "Hg (Oct 2, 4:00 PM)
Average74 °F85%30.02 "Hg
* Reported Sep 19 3:00 PM — Oct 4 3:00 PM, Berbérati, Weather by CustomWeather, © 2015

Note: Actual official high and low records may vary slightly from our data, if they occured in-between our weather recording intervals... More about our weather records


Berbérati weather history for previous 24 hours

Time TempWeatherWind HumidityBarometerVisibility
3:00 PM
Sun, Oct 4
90 °FPartly sunny.1 mph49%29.95 "HgN/A
2:00 PM86 °FPartly sunny.2 mph55%30.01 "HgN/A
1:00 PM86 °FPartly sunny.1 mph62%30.04 "HgN/A
12:00 PM82 °FPartly sunny.2 mph70%30.07 "HgN/A
11:00 AM82 °FPartly sunny.2 mph66%30.09 "HgN/A
10:00 AM77 °FPartly sunny.2 mph79%30.09 "HgN/A
9:00 AM72 °FSnow. Fog.2 mph94%30.09 "Hg4 mi
8:00 AM72 °FBroken clouds.1 mph94%30.09 "HgN/A
7:00 AM68 °FPartly sunny.2 mph100%30.07 "HgN/A
6:00 AM68 °FPartly sunny.No wind100%30.04 "HgN/A
5:00 AM68 °FPassing clouds.No wind100%30.04 "HgN/A
4:00 AM68 °FPassing clouds.No wind100%30.04 "Hg5 mi
3:00 AM68 °FThunderstorms. Passing clouds.No wind94%30.01 "Hg5 mi
2:00 AM68 °FThunderstorms. Passing clouds.2 mph100%30.04 "Hg4 mi
1:00 AM70 °FThunderstorms. Passing clouds.10 mph94%30.04 "Hg4 mi
12:00 AM72 °FThunderstorms. Passing clouds.7 mph94%30.07 "Hg4 mi
11:00 PM
Sat, Oct 3
72 °FThunderstorms. Passing clouds.3 mph94%30.07 "HgN/A
10:00 PM72 °FThunderstorms. Passing clouds.5 mph94%30.07 "HgN/A
9:00 PM72 °FThunderstorms. Passing clouds.7 mph94%30.04 "HgN/A
8:00 PM73 °FThunderstorms. Passing clouds.5 mph89%30.04 "HgN/A
7:00 PM73 °FThunderstorms. Passing clouds.6 mph89%30.01 "HgN/A
6:00 PM75 °FPartly sunny.5 mph83%29.98 "HgN/A
5:00 PM79 °FPartly sunny.5 mph70%29.95 "HgN/A
4:00 PM79 °FPartly sunny.7 mph74%29.92 "HgN/A
Weather by CustomWeather, © 2015

See weather overviewHow to use our weather pages